• In Schweiz
  • Länderverzeichnis
  • Für 7 Tage
  • Wassertemperatur
  • Satellitenkarten
  • Wetterkarte
  • Widgets
  • user-avatar
    Anmelden

    Stündliche Wetter Ogarevo-Pochkovo

    Heute, 18 Juli, Mittwoch

    Zeit Temperatur Niederschläge Wind Luftdruck Luftfeuchtigkeit
    00:00 +20°C° 0 mm 4 m/S 742 mmHg 91%
    01:00 +20°C° 0 mm 4 m/S 742 mmHg 92%
    02:00 +20°C° 0 mm 4 m/S 742 mmHg 92%
    03:00 +20°C° 0 mm 4 m/S 742 mmHg 94%
    04:00 +20°C° 0,4 mm 4 m/S 742 mmHg 94%
    05:00 +20°C° 0,4 mm 4 m/S 742 mmHg 95%
    06:00 +20°C° 0,4 mm 5 m/S 742 mmHg 95%
    07:00 +21°C° 0,3 mm 5 m/S 741 mmHg 94%
    08:00 +21°C° 0,3 mm 5 m/S 741 mmHg 92%
    09:00 +21°C° 0,3 mm 5 m/S 741 mmHg 91%
    10:00 +22°C° 0,5 mm 5 m/S 741 mmHg 88%
    11:00 +23°C° 0,5 mm 5 m/S 741 mmHg 86%
    12:00 +23°C° 0,5 mm 5 m/S 741 mmHg 84%
    13:00 +25°C° 0,8 mm 5 m/S 741 mmHg 82%
    14:00 +25°C° 0,8 mm 5 m/S 741 mmHg 81%
    15:00 +25°C° 0,8 mm 5 m/S 741 mmHg 80%
    16:00 +25°C° 0,5 mm 5 m/S 741 mmHg 81%
    17:00 +25°C° 0,5 mm 5 m/S 741 mmHg 83%
    18:00 +23°C° 0,5 mm 5 m/S 741 mmHg 84%
    19:00 +22°C° 0 mm 4 m/S 741 mmHg 87%
    20:00 +21°C° 0 mm 4 m/S 741 mmHg 90%
    21:00 +21°C° 0 mm 4 m/S 741 mmHg 92%
    22:00 +20°C° 0 mm 3 m/S 741 mmHg 94%
    23:00 +20°C° 0 mm 3 m/S 741 mmHg 95%

    Morgen, 19 Juli, Donnerstag

    Zeit Temperatur Niederschläge Wind Luftdruck Luftfeuchtigkeit
    00:00 +19°C° 0 mm 3 m/S 742 mmHg 96%
    01:00 +19°C° 0 mm 3 m/S 742 mmHg 97%
    02:00 +19°C° 0 mm 3 m/S 742 mmHg 97%
    03:00 +19°C° 0 mm 3 m/S 742 mmHg 97%
    04:00 +19°C° 0,1 mm 3 m/S 742 mmHg 96%
    05:00 +19°C° 0,1 mm 3 m/S 742 mmHg 95%
    06:00 +19°C° 0,1 mm 3 m/S 742 mmHg 95%
    07:00 +20°C° 0,1 mm 3 m/S 743 mmHg 93%
    08:00 +20°C° 0,1 mm 3 m/S 743 mmHg 90%
    09:00 +21°C° 0,1 mm 4 m/S 743 mmHg 88%
    10:00 +21°C° 0,2 mm 4 m/S 743 mmHg 87%
    11:00 +22°C° 0,2 mm 4 m/S 743 mmHg 85%
    12:00 +22°C° 0,2 mm 4 m/S 743 mmHg 83%
    13:00 +25°C° 0,3 mm 4 m/S 743 mmHg 79%
    14:00 +26°C° 0,3 mm 4 m/S 743 mmHg 74%
    15:00 +27°C° 0,3 mm 4 m/S 743 mmHg 70%
    16:00 +26°C° 0,6 mm 3 m/S 743 mmHg 73%
    17:00 +26°C° 0,6 mm 3 m/S 743 mmHg 75%
    18:00 +26°C° 0,6 mm 3 m/S 743 mmHg 78%
    19:00 +24°C° 0,1 mm 3 m/S 743 mmHg 83%
    20:00 +22°C° 0,1 mm 3 m/S 744 mmHg 87%
    21:00 +21°C° 0,1 mm 2 m/S 744 mmHg 92%
    22:00 +20°C° 0 mm 3 m/S 744 mmHg 93%
    23:00 +20°C° 0 mm 3 m/S 744 mmHg 94%

    übermorgen, 20 Juli, Freitag

    Zeit Temperatur Niederschläge Wind Luftdruck Luftfeuchtigkeit
    00:00 +20°C° 0 mm 3 m/S 744 mmHg 95%
    01:00 +19°C° 0,2 mm 3 m/S 744 mmHg 95%
    02:00 +19°C° 0,2 mm 3 m/S 744 mmHg 95%
    03:00 +19°C° 0,2 mm 3 m/S 744 mmHg 95%
    04:00 +19°C° 0,5 mm 3 m/S 744 mmHg 94%
    05:00 +20°C° 0,5 mm 3 m/S 745 mmHg 92%
    06:00 +20°C° 0,5 mm 4 m/S 745 mmHg 91%
    07:00 +21°C° 0,5 mm 4 m/S 745 mmHg 89%
    08:00 +22°C° 0,5 mm 4 m/S 745 mmHg 87%
    09:00 +23°C° 0,5 mm 4 m/S 745 mmHg 85%
    10:00 +26°C° 0,6 mm 4 m/S 745 mmHg 77%
    11:00 +28°C° 0,6 mm 4 m/S 745 mmHg 70%
    12:00 +29°C° 0,6 mm 4 m/S 745 mmHg 63%
    13:00 +30°C° 0,1 mm 4 m/S 745 mmHg 59%
    14:00 +32°C° 0,1 mm 4 m/S 745 mmHg 55%
    15:00 +32°C° 0,1 mm 4 m/S 745 mmHg 51%
    16:00 +30°C° 0,4 mm 4 m/S 746 mmHg 57%
    17:00 +29°C° 0,4 mm 4 m/S 746 mmHg 63%
    18:00 +28°C° 0,4 mm 4 m/S 746 mmHg 70%
    19:00 +26°C° 0,2 mm 3 m/S 746 mmHg 76%
    20:00 +25°C° 0,2 mm 3 m/S 746 mmHg 83%
    21:00 +23°C° 0,2 mm 2 m/S 746 mmHg 89%
    22:00 +23°C° 0,1 mm 2 m/S 746 mmHg 91%
    23:00 +21°C° 0,1 mm 3 m/S 746 mmHg 92%

    21 Juli, Samstag

    Zeit Temperatur Niederschläge Wind Luftdruck Luftfeuchtigkeit
    00:00 +21°C° 0,1 mm 3 m/S 746 mmHg 94%
    01:00 +21°C° 0,2 mm 3 m/S 746 mmHg 94%
    02:00 +20°C° 0,2 mm 2 m/S 747 mmHg 95%
    03:00 +20°C° 0,2 mm 2 m/S 747 mmHg 96%
    04:00 +21°C° 0 mm 2 m/S 747 mmHg 95%
    05:00 +21°C° 0 mm 2 m/S 747 mmHg 94%
    06:00 +21°C° 0 mm 2 m/S 747 mmHg 93%
    07:00 +24°C° 0 mm 2 m/S 747 mmHg 87%
    08:00 +25°C° 0 mm 2 m/S 747 mmHg 81%
    09:00 +27°C° 0 mm 2 m/S 747 mmHg 75%
    10:00 +28°C° 0,1 mm 2 m/S 747 mmHg 68%
    11:00 +29°C° 0,1 mm 3 m/S 747 mmHg 61%
    12:00 +31°C° 0,1 mm 3 m/S 747 mmHg 55%
    13:00 +31°C° 0,1 mm 3 m/S 747 mmHg 54%
    14:00 +31°C° 0,1 mm 3 m/S 747 mmHg 53%
    15:00 +33°C° 0,1 mm 4 m/S 747 mmHg 52%
    16:00 +31°C° 0,2 mm 3 m/S 747 mmHg 57%
    17:00 +30°C° 0,2 mm 3 m/S 747 mmHg 63%
    18:00 +29°C° 0,2 mm 2 m/S 747 mmHg 68%
    19:00 +27°C° 0,1 mm 2 m/S 747 mmHg 74%
    20:00 +26°C° 0,1 mm 2 m/S 747 mmHg 80%
    21:00 +24°C° 0,1 mm 2 m/S 747 mmHg 85%
    22:00 +24°C° 0,1 mm 2 m/S 747 mmHg 87%
    23:00 +23°C° 0,1 mm 2 m/S 747 mmHg 89%

    22 Juli, Sonntag

    Zeit Temperatur Niederschläge Wind Luftdruck Luftfeuchtigkeit
    00:00 +21°C° 0,1 mm 2 m/S 747 mmHg 90%
    01:00 +21°C° 0,1 mm 2 m/S 747 mmHg 91%
    02:00 +21°C° 0,1 mm 2 m/S 747 mmHg 92%
    03:00 +22°C° 0,1 mm 1 m/S 747 mmHg 93%
    04:00 +22°C° 0 mm 1 m/S 747 mmHg 92%
    05:00 +21°C° 0 mm 2 m/S 747 mmHg 90%
    06:00 +23°C° 0 mm 2 m/S 747 mmHg 89%
    07:00 +24°C° 0 mm 2 m/S 747 mmHg 83%
    08:00 +26°C° 0 mm 2 m/S 747 mmHg 77%
    09:00 +27°C° 0 mm 3 m/S 747 mmHg 70%
    10:00 +29°C° 0,2 mm 3 m/S 747 mmHg 65%
    11:00 +30°C° 0,2 mm 3 m/S 747 mmHg 60%
    12:00 +31°C° 0,2 mm 3 m/S 747 mmHg 56%
    13:00 +31°C° 0,1 mm 3 m/S 747 mmHg 55%
    14:00 +31°C° 0,1 mm 3 m/S 747 mmHg 54%
    15:00 +33°C° 0,1 mm 3 m/S 747 mmHg 53%
    16:00 +31°C° 0,4 mm 3 m/S 747 mmHg 59%
    17:00 +30°C° 0,4 mm 3 m/S 747 mmHg 66%
    18:00 +29°C° 0,4 mm 3 m/S 747 mmHg 72%
    19:00 +27°C° 0,1 mm 3 m/S 747 mmHg 78%
    20:00 +26°C° 0,1 mm 3 m/S 747 mmHg 84%
    21:00 +24°C° 0,1 mm 2 m/S 747 mmHg 90%
    22:00 +24°C° 0 mm 3 m/S 747 mmHg 92%
    23:00 +22°C° 0 mm 3 m/S 747 mmHg 94%

    23 Juli, Montag

    Zeit Temperatur Niederschläge Wind Luftdruck Luftfeuchtigkeit
    00:00 +22°C° 0 mm 3 m/S 747 mmHg 95%
    01:00 +21°C° 0 mm 3 m/S 747 mmHg 96%
    02:00 +21°C° 0 mm 3 m/S 747 mmHg 96%
    03:00 +21°C° 0 mm 3 m/S 747 mmHg 97%
    04:00 +21°C° 0,1 mm 3 m/S 748 mmHg 96%
    05:00 +21°C° 0,1 mm 3 m/S 748 mmHg 94%
    06:00 +22°C° 0,1 mm 3 m/S 748 mmHg 93%
    07:00 +23°C° 0 mm 4 m/S 748 mmHg 88%
    08:00 +25°C° 0 mm 4 m/S 748 mmHg 82%
    09:00 +26°C° 0 mm 4 m/S 748 mmHg 77%
    10:00 +27°C° 0,3 mm 5 m/S 748 mmHg 73%
    11:00 +28°C° 0,3 mm 5 m/S 748 mmHg 70%
    12:00 +29°C° 0,3 mm 5 m/S 748 mmHg 66%
    13:00 +28°C° 0,3 mm 5 m/S 748 mmHg 67%
    14:00 +28°C° 0,3 mm 5 m/S 748 mmHg 68%
    15:00 +28°C° 0,3 mm 5 m/S 748 mmHg 69%
    16:00 +27°C° 0,1 mm 5 m/S 748 mmHg 72%
    17:00 +26°C° 0,1 mm 5 m/S 748 mmHg 74%
    18:00 +26°C° 0,1 mm 5 m/S 748 mmHg 77%
    19:00 +23°C° 0 mm 5 m/S 748 mmHg 80%
    20:00 +22°C° 0 mm 4 m/S 749 mmHg 83%
    21:00 +21°C° 0 mm 4 m/S 749 mmHg 86%
    22:00 +20°C° 0 mm 4 m/S 749 mmHg 87%
    23:00 +19°C° 0 mm 4 m/S 749 mmHg 89%
    Mehr zeigen